Vertical_Velocity
-1 -1 6 2 2 4 1 5 4 1 0 -4 -1 -4 -1 -3 2 -2 -2 -1 -2 -1 -2 -0 -1 1 0 1 0 1 1 2 -0 4 -1 0 0 -0 2 -1 -1 1 -1 -0
-2 6 3 1 1 3 0 -0 9 9 -2 1 -4 -7 -4 -3 -1 -5 2 -3 -0 1 -4 1 -0 3 1 0 -2 1 3 4 0 2 -0 3 1 2 1 4 1 3 0 -0
-1 12 -2 -1 -3 0 1 3 1 9 -3 0 -0 -6 -7 -1 -4 -5 2 -4 -3 -2 2 -3 1 5 3 2 -1 -1 -0 3 2 -1 0 3 1 1 0 1 3 0 -0 0
-2 -2 1 2 2 -0 1 3 1 4 -2 -1 -1 -0 2 8 -6 -3 0 -11 1 2 10 -0 -6 -2 8 3 0 -1 -1 2 2 3 0 0 0 1 2 2 2 0 -0 -2
2 1 1 0 7 -1 10 -3 6 3 -1 -4 -0 -5 1 -2 0 -6 1 3 -10 -6 -0 10 -1 -5 -1 1 2 -1 -1 2 3 1 1 2 1 4 1 2 -0 1 -1 -0
5 4 1 6 -0 -2 1 4 -3 -0 -2 -1 -0 -5 -0 -6 2 -2 -1 3 10 -2 -1 5 -4 2 -3 1 -3 -0 -1 -1 3 1 1 0 1 1 2 2 4 3 2 0
-1 2 2 2 -0 1 -1 3 1 -4 -6 3 6 3 -4 4 2 1 -1 -4 1 -1 4 -3 2 12 0 2 0 -1 -1 0 0 4 2 1 1 1 0 2 1 1 2 2
1 2 1 -3 3 4 -3 -5 -4 -3 -4 10 8 -6 -1 3 2 7 4 -9 1 8 6 -6 4 5 0 -8 4 -0 0 -1 -1 -1 2 1 3 1 -0 1 1 2 5 1
4 3 -6 6 -3 -6 9 2 6 3 5 8 -7 2 18 6 -9 -3 10 -2 -4 -4 4 -2 -4 6 4 2 -17 6 1 1 0 -2 -3 2 0 2 2 2 3 2 3 1
8 3 4 5 -0 2 2 7 -4 -10 -2 -2 -5 5 18 3 2 -1 -4 -3 2 -1 4 3 10 -1 1 7 5 -20 -8 -1 1 -1 -0 0 2 -0 1 0 1 2 0 -0
8 4 6 -1 3 3 3 0 -10 -3 -0 -4 -3 19 -6 9 -2 -4 -1 -6 -9 -1 3 6 3 4 1 -7 5 4 -5 -7 -2 1 -2 -1 4 2 2 2 0 2 -0 0
-0 -1 -1 2 6 -1 -6 4 -4 -2 2 -8 -5 33 -7 0 -3 -4 -1 -7 -9 -10 -5 4 -1 -5 11 6 1 0 2 -1 -3 -4 -1 -0 -0 -0 1 4 3 3 4 -2
3 2 2 9 11 2 -3 -1 -4 -4 6 2 4 15 13 6 -4 -10 -10 -14 2 4 -9 1 -3 2 -6 -2 12 2 2 2 -3 -0 -3 0 1 2 3 2 2 1 4 2
2 -8 -1 2 5 -1 -3 5 -5 -8 5 1 3 9 9 -2 -7 -0 -6 -6 -6 2 2 12 -0 -4 11 4 -3 -4 -1 6 -2 -1 -1 -7 4 4 3 2 0 1 2 4
-1 -2 -7 -3 1 7 5 9 0 -10 7 1 19 10 -18 -7 -11 5 -14 4 -6 -2 -13 -16 -8 -1 3 5 -3 7 2 1 4 -5 4 -4 -6 -1 -1 3 3 1 2 2
-0 -1 1 7 -11 -10 -4 2 7 2 14 12 -14 -3 -23 17 -7 4 -10 -2 -4 -1 4 -3 -4 4 2 1 2 -10 -2 -0 -3 -4 5 -4 -1 -0 3 -1 3 1 5 1
-1 -3 -4 -0 -11 -13 -35 16 2 6 27 -22 -6 -10 -5 21 -8 6 7 -1 -1 -7 -6 -2 -2 -11 5 1 4 -7 5 4 3 -7 3 3 -9 -1 6 1 0 2 3 2
-4 -6 -10 -6 -4 -30 1 3 0 2 -2 -2 1 -12 2 7 5 4 0 2 1 3 -10 -8 0 -1 1 0 5 13 -14 -2 6 11 7 5 3 -15 -3 1 3 4 3 1
0 -5 -12 -13 -13 -17 -2 12 2 -0 1 -6 -3 -3 2 3 14 -1 0 9 0 0 9 -0 -6 -3 26 6 3 7 6 -4 -12 2 4 -6 1 2 -2 -6 1 3 5 2
-7 -5 -6 -6 -10 -16 -7 1 -0 1 -7 -2 4 -0 -6 6 15 3 -1 5 4 2 1 5 -0 3 -10 7 12 -6 11 -7 2 -11 13 3 0 -6 2 2 -5 2 0 1
-4 -9 -6 -8 -8 -4 -2 -3 -3 -2 -3 -2 5 5 -6 -3 3 -1 1 3 9 5 2 6 7 -1 -6 -1 8 18 -6 6 -5 3 9 -21 -6 -6 2 -0 2 -2 5 -2
2 -2 -4 -6 -8 -7 2 0 -5 -3 -3 -4 -2 -2 2 -6 8 2 1 9 1 4 11 2 9 0 9 -7 -9 -0 -2 3 -4 2 -0 -10 -11 -11 5 -1 8 -0 -0 2
-3 -4 -1 -2 -4 -2 3 -2 -4 -2 -1 -14 -2 -5 -7 -2 5 -1 1 1 7 5 4 14 -4 -16 -16 -5 -10 -28 -2 9 -8 2 13 12 -6 13 5 -1 5 5 -1 4
-4 -5 -4 -2 -4 -4 1 -2 -3 -5 -3 -6 -6 2 -6 3 3 -1 -3 -3 6 0 1 7 26 5 -9 -12 -4 -16 -12 2 2 -5 6 6 3 49 -10 6 -1 3 -0 2
-1 -3 -3 -4 -7 -6 -3 1 -1 -2 -3 -2 -4 -7 -9 -5 5 -6 -7 2 -2 1 -4 -3 10 -5 12 1 7 -8 -11 -13 0 1 5 2 -9 8 5 14 3 -0 -2 -4
-4 -1 -1 -2 -3 -1 -2 -5 -2 0 -2 -5 -5 -5 -6 -7 4 -5 -4 -7 -2 -2 -1 -1 4 15 5 -5 1 1 8 -2 -3 10 7 5 2 -2 2 1 -1 -4 -5 1
Height
5846 5851 5857 5860 5863 5866 5869 5872 5876 5878 5878 5876 5877 5882 5887 5889 5895 5897 5900 5900 5901 5902 5903 5906 5909 5912 5915 5917 5920 5921 5924 5928 5930 5934 5937 5938 5940 5941 5942 5943 5943 5944 5945 5944
5843 5848 5852 5854 5857 5861 5863 5867 5874 5875 5873 5876 5877 5880 5883 5885 5890 5894 5899 5899 5901 5902 5901 5904 5908 5910 5914 5916 5919 5920 5923 5927 5930 5933 5937 5938 5940 5942 5944 5945 5946 5946 5946 5946
5837 5843 5844 5847 5850 5855 5858 5863 5868 5870 5867 5870 5872 5875 5878 5881 5887 5891 5896 5896 5901 5900 5902 5902 5906 5909 5913 5915 5917 5919 5922 5926 5930 5933 5936 5939 5941 5942 5944 5947 5949 5948 5948 5948
5830 5834 5838 5843 5847 5850 5853 5858 5861 5864 5863 5867 5868 5873 5875 5878 5882 5887 5891 5891 5888 5899 5903 5901 5901 5904 5910 5913 5915 5918 5920 5924 5928 5933 5936 5938 5941 5942 5945 5947 5950 5951 5951 5951
5824 5826 5832 5837 5842 5844 5850 5851 5857 5860 5859 5861 5863 5868 5873 5874 5881 5885 5890 5892 5893 5895 5901 5905 5903 5901 5906 5910 5914 5916 5919 5922 5926 5930 5935 5938 5941 5944 5945 5948 5950 5952 5953 5953
5818 5821 5826 5832 5834 5836 5842 5845 5848 5853 5855 5859 5862 5864 5869 5876 5880 5883 5886 5889 5889 5895 5898 5901 5903 5899 5903 5908 5912 5914 5918 5920 5924 5927 5932 5937 5940 5943 5945 5948 5950 5952 5954 5955
5809 5814 5818 5821 5827 5832 5836 5840 5843 5848 5852 5857 5862 5859 5866 5876 5879 5880 5881 5881 5886 5888 5893 5895 5899 5903 5902 5906 5910 5914 5915 5919 5923 5926 5930 5934 5938 5942 5944 5948 5950 5952 5954 5955
5803 5808 5809 5816 5821 5825 5827 5831 5837 5843 5848 5849 5857 5857 5866 5872 5875 5879 5881 5879 5884 5888 5890 5893 5897 5900 5900 5902 5905 5910 5913 5915 5920 5924 5927 5932 5936 5941 5944 5946 5949 5952 5954 5954
5796 5800 5804 5811 5810 5817 5821 5825 5829 5834 5838 5838 5848 5858 5866 5865 5865 5870 5874 5875 5878 5882 5888 5891 5895 5899 5902 5901 5901 5904 5909 5912 5916 5918 5923 5929 5933 5938 5942 5944 5948 5951 5953 5954
5788 5792 5797 5801 5803 5809 5814 5817 5818 5823 5827 5829 5839 5850 5861 5855 5857 5859 5861 5867 5872 5877 5881 5887 5892 5895 5900 5902 5900 5900 5900 5907 5912 5914 5918 5923 5929 5933 5938 5941 5944 5947 5950 5952
5781 5786 5792 5794 5797 5800 5803 5803 5807 5817 5819 5823 5834 5847 5850 5843 5845 5849 5852 5855 5860 5868 5875 5881 5884 5886 5891 5898 5901 5900 5902 5903 5907 5912 5914 5918 5923 5928 5934 5938 5941 5944 5946 5950
5772 5777 5784 5789 5790 5791 5792 5797 5802 5807 5810 5814 5820 5836 5834 5830 5832 5836 5843 5850 5854 5857 5863 5871 5875 5878 5887 5895 5897 5900 5901 5902 5905 5905 5909 5914 5918 5922 5927 5933 5937 5941 5943 5946
5765 5770 5775 5781 5781 5782 5784 5788 5792 5798 5802 5807 5809 5821 5825 5820 5822 5823 5830 5837 5847 5852 5856 5863 5867 5872 5877 5885 5894 5897 5898 5899 5902 5904 5904 5909 5914 5919 5924 5928 5933 5937 5940 5942
5758 5760 5765 5770 5770 5772 5776 5780 5782 5786 5791 5795 5800 5806 5812 5810 5812 5817 5822 5830 5842 5849 5852 5854 5859 5864 5874 5875 5880 5886 5892 5895 5896 5899 5900 5901 5909 5914 5918 5922 5926 5931 5935 5938
5750 5752 5754 5757 5760 5765 5767 5771 5774 5777 5780 5781 5789 5791 5800 5802 5804 5814 5817 5825 5831 5837 5840 5844 5850 5855 5862 5866 5869 5874 5881 5886 5890 5892 5895 5894 5900 5906 5910 5916 5921 5926 5930 5934
5741 5743 5745 5746 5746 5748 5753 5758 5764 5769 5767 5763 5770 5779 5800 5797 5796 5806 5809 5817 5820 5824 5833 5839 5847 5850 5856 5859 5857 5866 5869 5875 5881 5886 5888 5889 5892 5899 5905 5911 5916 5919 5924 5929
5732 5733 5734 5734 5732 5733 5738 5747 5742 5750 5748 5748 5759 5770 5785 5788 5787 5796 5801 5807 5809 5814 5822 5828 5835 5841 5845 5851 5854 5858 5864 5870 5878 5882 5883 5885 5885 5890 5896 5902 5908 5914 5918 5922
5722 5722 5723 5721 5716 5715 5721 5715 5720 5727 5725 5733 5743 5754 5769 5777 5772 5783 5788 5793 5800 5805 5813 5820 5826 5829 5830 5837 5845 5851 5859 5865 5871 5873 5878 5881 5881 5881 5886 5891 5899 5906 5911 5915
5715 5714 5712 5710 5705 5702 5701 5702 5701 5705 5707 5715 5726 5737 5750 5761 5755 5768 5777 5782 5789 5796 5802 5810 5818 5823 5824 5828 5836 5842 5847 5854 5859 5866 5871 5872 5872 5876 5880 5884 5889 5897 5904 5908
5705 5705 5703 5699 5695 5691 5689 5689 5690 5692 5690 5701 5711 5719 5731 5743 5744 5755 5764 5770 5776 5783 5791 5799 5804 5811 5818 5823 5823 5832 5836 5844 5852 5857 5865 5870 5870 5871 5875 5879 5881 5886 5894 5901
5698 5696 5693 5689 5683 5683 5682 5682 5682 5682 5689 5691 5698 5704 5713 5725 5732 5737 5749 5755 5762 5770 5776 5785 5794 5797 5802 5811 5820 5827 5833 5839 5847 5852 5856 5862 5863 5867 5868 5872 5875 5878 5886 5892
5692 5689 5685 5680 5675 5673 5674 5674 5675 5678 5678 5680 5683 5686 5695 5706 5710 5716 5730 5740 5746 5754 5763 5769 5781 5787 5791 5793 5802 5814 5825 5833 5837 5844 5844 5853 5857 5860 5864 5868 5870 5870 5877 5884
5685 5682 5678 5673 5668 5664 5665 5665 5666 5667 5668 5668 5671 5672 5680 5687 5691 5698 5712 5723 5733 5740 5751 5753 5764 5772 5778 5784 5789 5799 5813 5818 5827 5829 5836 5843 5846 5850 5856 5863 5867 5865 5870 5876
5679 5675 5671 5666 5661 5657 5655 5654 5655 5656 5657 5657 5657 5661 5663 5667 5673 5681 5693 5702 5714 5723 5730 5740 5748 5754 5765 5772 5780 5791 5803 5809 5813 5822 5830 5835 5838 5833 5846 5853 5857 5860 5862 5868
5674 5669 5665 5659 5654 5650 5648 5645 5643 5643 5644 5646 5646 5646 5648 5650 5658 5664 5673 5685 5694 5705 5714 5725 5733 5738 5747 5755 5765 5777 5789 5798 5804 5811 5818 5827 5828 5833 5838 5841 5846 5852 5856 5858
5671 5665 5661 5656 5651 5645 5640 5637 5635 5634 5633 5632 5632 5632 5632 5635 5643 5649 5658 5668 5677 5685 5697 5709 5721 5728 5731 5734 5752 5759 5771 5778 5789 5800 5809 5811 5821 5826 5830 5831 5836 5843 5847 5849